Regional Weather Roundup
Issued by NWS

Home | Current Version | Previous Version | Graphics & Text | Print | Product List | Glossary Off
Versions: 1 2 3 4 5 6 7 8 9 10 11 12 13 14 15 16 17 18 19 20 21 22 23 24 25 26 27 28 29 30 31 32 33 34 35 36 37 38 39 40 41 42 43 44 45 46 47 48 49 50

000
ASUS43 KMKX 280559
RWRWI

WISCONSIN REGIONAL WEATHER ROUNDUP
NATIONAL WEATHER SERVICE MILWAUKEE/SULLIVAN WI
1200 AM CST WED JAN 28 2015

NOTE: "FAIR" INDICATES FEW OR NO CLOUDS BELOW 12,000 FEET WITH NO
SIGNIFICANT WEATHER AND/OR OBSTRUCTIONS TO VISIBILITY.

WIZ001-002-006>008-014>016-023>028-280700-
NORTHWEST WISCONSIN

CITY           SKY/WX    TMP DP  RH WIND       PRES   REMARKS
SUPERIOR ARPT  CLOUDY    29  24  80 S6        30.13F WCI  23
ASHLAND        CLOUDY    28  21  75 S8        30.14F WCI  20
6HR MIN TEMP:  28; 6HR MAX TEMP:  29;

HAYWARD        CLOUDY    25  20  81 S7        30.12F WCI  17
6HR MIN TEMP:  25; 6HR MAX TEMP:  27;

SIREN          PTCLDY    25  20  82 S6        30.12F WCI  18
CUMBERLAND     MOCLDY    21  18  86 S6        30.13S WCI  14
RICE LAKE      PTCLDY    24  19  84 SE5       30.16S WCI  18
CHETEK         PTCLDY    24  20  87 SE6       30.15F WCI  16
LADYSMITH      CLOUDY    26  22  86 SE5       30.17F WCI  20
EAU CLAIRE     NOT AVBL
MENOMONIE      CLOUDY    26  21  80 SE6       30.16F WCI  20
NEW RICHMOND   CLOUDY    27  22  82 S9        30.13F WCI  18
OSCEOLA        CLOUDY    28  24  85 S14       30.16S WCI  17
$$

WIZ003>005-009-010-017-018-280700-
NORTH CENTRAL WISCONSIN

CITY           SKY/WX    TMP DP  RH WIND       PRES   REMARKS
MANITOWISH WTR CLOUDY    22  20  92 S6        30.14S WCI  15
ARBOR VITAE    CLOUDY    23  20  86 S6        30.15S WCI  16
WOODRUFF       CLOUDY    23  20  86 S6        30.15S WCI  16
RHINELANDER    CLOUDY    22  18  85 SW5       30.16S WCI  16
6HR MIN TEMP:  22; 6HR MAX TEMP:  23;

EAGLE RIVER    CLOUDY    22  17  83 CALM      30.15R
LAND O LAKES   CLOUDY    22  19  88 SW5       30.15S WCI  16
PHILLIPS       CLOUDY    23  20  89 S5        30.14F WCI  16
TOMAHAWK       CLOUDY    22  19  87 CALM      30.18R
MEDFORD        CLOUDY    23  21  93 S7        30.16S FOG     WCI  15
MERRILL        CLOUDY    24  21  89 CALM      30.19R
$$

WIZ029-030-035-036-043>047-280700-
CENTRAL WISCONSIN

CITY           SKY/WX    TMP DP  RH WIND       PRES   REMARKS
WAUSAU         CLOUDY    23  19  85 SE5       30.18S WCI  17
6HR MIN TEMP:  23; 6HR MAX TEMP:  24;

MOSINEE        CLOUDY    23  23 100 S5        30.20R WCI  17
MARSHFIELD     CLOUDY    25  22  88 S7        30.18S FOG     WCI  17
6HR MIN TEMP:  24; 6HR MAX TEMP:  25;

STEVENS POINT  CLOUDY    22  18  83 S5        30.22S WCI  16
WAUPACA        CLOUDY    25  19  77 CALM      30.23S
WAUTOMA        NOT AVBL
WISC RAPIDS    CLOUDY    24  19  81 S3        30.22S
6HR MIN TEMP:  24; 6HR MAX TEMP:  25;

CAMP DOUGLAS   CLOUDY    27  27 100 S3        30.20F
$$

WIZ011>013-019>022-031-037>040-048>050-280700-
NORTHEAST WISCONSIN

CITY           SKY/WX    TMP DP  RH WIND       PRES   REMARKS
ANTIGO         CLOUDY    21  18  89 S6        30.18R WCI  13
SHAWANO        CLOUDY    25  18  74 CALM      30.25R
OCONTO         MOCLDY    11   9  95 CALM      30.26S
STURGEON BAY   CLOUDY    16  10  79 CALM      30.26S
6HR MIN TEMP:  12; 6HR MAX TEMP:  19;

GREEN BAY      MOCLDY    15  13  91 CALM      30.26R
6HR MIN TEMP:  11; 6HR MAX TEMP:  23;

MANITOWOC      CLOUDY    23  18  80 W5        30.25R WCI  17
APPLETON       CLOUDY    23  18  80 S5        30.24R WCI  17
CLINTONVILLE   CLOUDY    23  18  80 CALM      30.24R
OSHKOSH        CLOUDY    23  16  74 S3        30.23S
6HR MIN TEMP:  20; 6HR MAX TEMP:  26;

$$

WIZ032>034-041-042-053>061-280700-
SOUTHWEST WISCONSIN

CITY           SKY/WX    TMP DP  RH WIND       PRES   REMARKS
LA CROSSE      CLOUDY    29  21  72 S12       30.20F WCI  19
6HR MIN TEMP:  29; 6HR MAX TEMP:  30;

SPARTA         CLOUDY    27  22  83 S6        30.22S WCI  20
VIROQUA        CLOUDY    25  22  89 S10       30.18S WCI  15
BOSCOBEL       CLOUDY    29  22  75 S3        30.23S
6HR MIN TEMP:  28; 6HR MAX TEMP:  29;

PRAIRIE DU CHI CLOUDY    27  21  77 SE5       30.22F WCI  22
PLATTEVILLE    CLOUDY    27  24  89 SE6       30.21F WCI  21
$$

WIZ056-057-062-063-064-067-068-280700-
SOUTH CENTRAL WISCONSIN

CITY           SKY/WX    TMP DP  RH WIND       PRES   REMARKS
REEDSBURG      CLOUDY    26  24  93 CALM      30.21F FOG
BARABOO/DELLS  CLOUDY    25  23  91 CALM      30.22S FOG
LONE ROCK      CLOUDY    27  24  89 SE3       30.23F FOG
MINERAL POINT  CLOUDY    28  27  93 SE5       30.21S FOG     WCI  23
MADISON        CLOUDY    25  20  81 S6        30.23S WCI  18
6HR MIN TEMP:  24; 6HR MAX TEMP:  27;

MIDDLETON      CLOUDY    28  24  84 SE3       30.23R
WATERTOWN      CLOUDY    23  19  83 S3        30.24S
MONROE         CLOUDY    28  27  93 SE3       30.22R FOG
JANESVILLE     CLOUDY    28  21  74 SE6       30.24S WCI  22
$$

WIZ051-052-058>065-066-070>072-280700-
SOUTHEAST WISCONSIN

CITY           SKY/WX    TMP DP  RH WIND       PRES   REMARKS
MILWAUKEE      CLOUDY    27  17  66 CALM      30.25S
6HR MIN TEMP:  27; 6HR MAX TEMP:  28;

WAUKESHA       CLOUDY    21  18  86 CALM      30.25S
MILWAUKEE/TIMM CLOUDY    27  18  69 CALM      30.25F
RACINE         CLOUDY    27  19  72 W3        30.26F
6HR MIN TEMP:  24; 6HR MAX TEMP:  28;

BURLINGTON     CLOUDY    16  14  92 CALM      30.25F
KENOSHA        CLOUDY    22  18  85 SW3       30.25F
6HR MIN TEMP:  19; 6HR MAX TEMP:  25;

FOND DU LAC    CLOUDY    22  16  78 S5        30.24R WCI  16
6HR MIN TEMP:  22; 6HR MAX TEMP:  26;

SHEBOYGAN      CLOUDY    24  18  77 W5        30.24S WCI  18
6HR MIN TEMP:  24; 6HR MAX TEMP:  26;

WEST BEND      CLOUDY    23  18  80 CALM      30.24S
JUNEAU         MOCLDY    24  19  80 S6        30.24S WCI  17
$$

LSZ147-162-280700-
LAKE SUPERIOR

STATION/POSITION TIME  TEMP    WIND        PRES    WAVE
                       AIR SEA DIR/SP/G            HT/PER
                 (UTC) (F)     (DEG/KT/KT) (MB)    (FT/S)
DEVILS ISLAND    0500   29     180/  4/  6 1022.1S
PORT WING        0540   29     170/  5/  9 1020.3F
SAXON HARBOR     0500   28        CALM     1021.7S
$$

LMZ867-665-643>646-280700-
LAKE MICHIGAN

STATION/POSITION TIME  TEMP    WIND        PRES    WAVE
                       AIR SEA DIR/SP/G            HT/PER
                 (UTC) (F)     (DEG/KT/KT) (MB)    (FT/S)
NORTHPORT PIER   0502   19     230/  2/  4 1024.0R
SISTER BAY       0513   19        CALM       N/A
KEWAUNEE LAKESHO 0500   23     260/  3/  5 1022.9F
SHEBOYGAN LAKESH 0500   27      CALM  /  1 1025.3F
PORT WASHINGTON  0500   26        CALM     1025.4S
MILWAUKEE LAKESH 0500   28      80/  3/  4   N/A
KENOSHA   LAKESH 0500   28      CALM  /  2 1024.7S
$$

TC  - TEMPERATURE IN CELSIUS
VSB - VISIBILITY IN STATUTE MILES
WCI - WIND CHILL INDEX
HX  - HEAT INDEX



USA.gov is the U.S. government's official web portal to all federal, state and local government web resources and services.